IT9NKT-WX Weather Reports


Display with metric or nautical units.
time (UTC)temp
F
wind
direction
speed
MPH
gust
MPH
rain 1hr
in
rain 24hr
in
rain mn
in
humidity
%
barometer
mb
20260504035003 58 169 1.0 2.0 0.00 0.00 0.00 71 1020.9
20260504034503 58 182 0.0 2.0 0.00 0.00 0.00 70 1020.7
20260504034003 58 176 0.0 2.0 0.00 0.00 0.00 70 1021.0
20260504033504 57 176 1.0 2.0 0.00 0.00 0.00 71 1020.8
20260504033003 58 183 0.0 2.0 0.00 0.00 0.00 72 1020.8
20260504032503 57 173 0.0 1.0 0.00 0.00 0.00 73 1020.9
20260504032004 57 181 0.0 2.0 0.00 0.00 0.00 73 1021.2
20260504031504 57 182 0.0 2.0 0.00 0.00 0.00 73 1021.0
20260504031004 57 184 0.0 1.0 0.00 0.00 0.00 73 1021.1
20260504030503 57 183 0.0 1.0 0.00 0.00 0.00 73 1021.1
20260504030218 57 186 0.0 1.0 0.00 0.00 0.00 73 1021.0
20260504025503 57 182 0.0 1.0 0.00 0.00 0.00 73 1021.0
20260504025004 57 181 0.0 2.0 0.00 0.00 0.00 74 1021.2
20260504024503 57 183 0.0 2.0 0.00 0.00 0.00 74 1021.3
20260504024004 56 167 0.0 1.0 0.00 0.00 0.00 75 1021.4
20260504023503 56 168 0.0 2.0 0.00 0.00 0.00 75 1021.3
20260504023003 56 165 1.0 2.0 0.00 0.00 0.00 76 1021.2
20260504022504 56 162 1.0 2.0 0.00 0.00 0.00 76 1021.2
20260504022003 57 163 1.0 2.0 0.00 0.00 0.00 76 1021.4
20260504021504 57 167 1.0 3.0 0.00 0.00 0.00 77 1021.4
20260504021004 57 174 0.0 3.0 0.00 0.00 0.00 78 1021.3
20260504020715 57 182 0.0 1.0 0.00 0.00 0.00 78 1021.3
20260504020003 57 182 0.0 2.0 0.00 0.00 0.00 78 1021.4
20260504015716 57 184 0.0 2.0 0.00 0.00 0.00 78 1021.4
20260504015003 57 180 0.0 1.0 0.00 0.00 0.00 78 1021.4
20260504014504 57 180 0.0 1.0 0.00 0.00 0.00 77 1021.2
20260504014003 57 189 0.0 1.0 0.00 0.00 0.00 77 1021.1
20260504013504 58 193 0.0 1.0 0.00 0.00 0.00 77 1021.1
20260504013003 58 186 0.0 1.0 0.00 0.00 0.00 77 1021.1
20260504012504 58 187 0.0 1.0 0.00 0.00 0.00 77 1021.2
20260504012003 58 190 0.0 1.0 0.00 0.00 0.00 77 1021.1
20260504011503 58 178 0.0 0.0 0.00 0.00 0.00 77 1021.1
20260504011004 58 178 0.0 0.0 0.00 0.00 0.00 77 1021.3
20260504010503 58 187 0.0 1.0 0.00 0.00 0.00 77 1021.2
20260504010214 58 187 0.0 1.0 0.00 0.00 0.00 76 1021.4
20260504005503 58 191 0.0 1.0 0.00 0.00 0.00 77 1021.3
20260504005004 58 190 0.0 1.0 0.00 0.00 0.00 76 1021.3
20260504004503 58 181 0.0 1.0 0.00 0.00 0.00 77 1021.4
20260504004003 58 178 0.0 1.0 0.00 0.00 0.00 76 1021.2
20260504003504 58 177 0.0 1.0 0.00 0.00 0.00 76 1021.5
20260504003217 58 176 0.0 1.0 0.00 0.00 0.00 76 1021.2
20260504002504 58 176 0.0 2.0 0.00 0.00 0.00 76 1021.4
20260504002218 58 179 0.0 2.0 0.00 0.00 0.00 76 1021.6
20260504001503 58 180 0.0 2.0 0.00 0.00 0.00 76 1021.5
20260504001004 58 178 0.0 2.0 0.00 0.00 0.00 76 1021.4
20260504000504 58 190 0.0 1.0 0.00 0.00 0.00 76 1021.4
20260504000004 58 188 0.0 1.0 0.00 0.00 0.00 77 1021.5
20260503235503 58 190 0.0 1.0 0.00 0.00 0.00 77 1021.5
20260503235216 58 178 0.0 1.0 0.00 0.00 0.00 77 1021.4
20260503234504 58 152 0.0 2.0 0.00 0.00 0.00 78 1021.7
20260503234004 58 177 0.0 1.0 0.00 0.00 0.00 79 1021.8
20260503233504 58 176 0.0 0.0 0.00 0.00 0.00 79 1021.8
20260503233004 58 179 0.0 1.0 0.00 0.00 0.00 79 1021.9
20260503232503 58 182 0.0 1.0 0.00 0.00 0.00 80 1022.2
20260503232213 58 181 0.0 1.0 0.00 0.00 0.00 80 1022.1
20260503231503 59 0 0.0 0.0 0.00 0.00 0.00 79 1022.0
20260503230504 59 196 0.0 0.0 0.00 0.00 0.00 79 1022.1
20260503230003 59 172 0.0 1.0 0.00 0.00 0.00 78 1022.0
20260503225503 59 160 0.0 1.0 0.00 0.00 0.00 78 1021.8
20260503225003 59 241 0.0 1.0 0.00 0.00 0.00 78 1022.0
20260503224715 59 241 0.0 1.0 0.00 0.00 0.00 78 1022.1
20260503224218 59 210 0.0 1.0 0.00 0.00 0.00 78 1022.1
20260503223504 59 179 0.0 1.0 0.00 0.00 0.00 78 1022.1
20260503223004 59 203 0.0 1.0 0.00 0.00 0.00 78 1022.1
20260503222504 59 222 0.0 2.0 0.00 0.00 0.00 78 1022.2
20260503222215 59 208 0.0 2.0 0.00 0.00 0.00 78 1022.1
20260503221504 59 171 0.0 0.0 0.00 0.00 0.00 78 1022.1
20260503221004 60 170 0.0 1.0 0.00 0.00 0.00 78 1022.2
20260503220504 60 169 0.0 1.0 0.00 0.00 0.00 77 1021.9
20260503220217 60 181 0.0 2.0 0.00 0.00 0.00 77 1022.2
20260503215503 60 176 0.0 2.0 0.00 0.00 0.00 76 1022.1
20260503215004 61 186 0.0 1.0 0.00 0.00 0.00 75 1022.0
20260503214503 61 192 0.0 1.0 0.00 0.00 0.00 74 1022.2
20260503214004 61 0 0.0 0.0 0.00 0.00 0.00 74 1022.1
20260503213503 61 0 0.0 0.0 0.00 0.00 0.00 73 1021.9
20260503213004 61 0 0.0 0.0 0.00 0.00 0.00 73 1022.0
20260503212504 61 0 0.0 0.0 0.00 0.00 0.00 73 1021.8
20260503212003 61 0 0.0 0.0 0.00 0.00 0.00 73 1021.6
20260503211503 61 0 0.0 0.0 0.00 0.00 0.00 73 1021.8
20260503211004 61 0 0.0 0.0 0.00 0.00 0.00 73 1021.7
20260503210503 62 171 0.0 0.0 0.00 0.00 0.00 73 1021.7
20260503210004 62 176 0.0 0.0 0.00 0.00 0.00 72 1021.6
20260503205504 62 186 0.0 1.0 0.00 0.00 0.00 72 1021.7
20260503205003 62 182 0.0 1.0 0.00 0.00 0.00 71 1021.7
20260503204504 62 195 0.0 2.0 0.00 0.00 0.00 70 1021.7
20260503204003 62 192 0.0 2.0 0.00 0.00 0.00 69 1021.8
20260503203504 63 170 0.0 1.0 0.00 0.00 0.00 68 1021.6
20260503203003 63 182 0.0 1.0 0.00 0.00 0.00 67 1021.8
20260503202504 63 190 0.0 1.0 0.00 0.00 0.00 66 1021.8
20260503202216 63 190 0.0 0.0 0.00 0.00 0.00 65 1021.7
20260503201503 63 183 0.0 1.0 0.00 0.00 0.00 65 1021.7
20260503201003 63 180 0.0 1.0 0.00 0.00 0.00 65 1021.5
20260503200504 63 0 0.0 0.0 0.00 0.00 0.00 65 1021.6
20260503200218 63 0 0.0 0.0 0.00 0.00 0.00 65 1021.5
20260503195503 63 0 0.0 0.0 0.00 0.00 0.00 65 1021.5
20260503195003 63 216 0.0 1.0 0.00 0.00 0.00 65 1021.6
20260503194504 64 216 0.0 1.0 0.00 0.00 0.00 64 1021.4
20260503194003 64 188 0.0 1.0 0.00 0.00 0.00 64 1021.7
20260503193718 64 188 0.0 1.0 0.00 0.00 0.00 64 1021.5
20260503193004 64 185 0.0 1.0 0.00 0.00 0.00 64 1021.5
20260503192714 64 187 0.0 1.0 0.00 0.00 0.00 64 1021.4
20260503192003 64 195 0.0 2.0 0.00 0.00 0.00 63 1021.5
20260503191504 64 196 0.0 2.0 0.00 0.00 0.00 63 1021.4
20260503191004 64 194 0.0 1.0 0.00 0.00 0.00 63 1021.2
20260503190503 65 192 0.0 1.0 0.00 0.00 0.00 63 1021.1
20260503190004 65 195 0.0 2.0 0.00 0.00 0.00 63 1021.1
20260503185504 64 200 0.0 2.0 0.00 0.00 0.00 63 1021.2
20260503185004 64 198 0.0 2.0 0.00 0.00 0.00 63 1021.2
20260503184712 64 193 1.0 2.0 0.00 0.00 0.00 63 1021.1
20260503184004 64 193 1.0 2.0 0.00 0.00 0.00 63 1021.0
20260503183503 64 196 0.0 2.0 0.00 0.00 0.00 63 1020.7
20260503183004 64 196 0.0 1.0 0.00 0.00 0.00 63 1020.7
20260503182503 64 195 1.0 2.0 0.00 0.00 0.00 63 1020.8
20260503182004 64 195 1.0 2.0 0.00 0.00 0.00 63 1020.6
20260503181504 64 192 0.0 1.0 0.00 0.00 0.00 63 1020.6
20260503181004 64 186 0.0 2.0 0.00 0.00 0.00 63 1020.7
20260503180503 64 188 0.0 2.0 0.00 0.00 0.00 63 1020.7
20260503180004 64 172 0.0 1.0 0.00 0.00 0.00 63 1020.7
20260503175503 64 165 0.0 2.0 0.00 0.00 0.00 63 1020.5
20260503175004 64 169 0.0 2.0 0.00 0.00 0.00 63 1020.5
20260503174504 64 171 0.0 1.0 0.00 0.00 0.00 63 1020.5
20260503174004 64 193 0.0 3.0 0.00 0.00 0.00 63 1020.6
20260503173503 64 195 1.0 3.0 0.00 0.00 0.00 62 1020.7
20260503173004 64 169 1.0 2.0 0.00 0.00 0.00 62 1020.7
20260503172504 64 139 1.0 2.0 0.00 0.00 0.00 62 1020.4
20260503172003 64 148 1.0 4.0 0.00 0.00 0.00 62 1020.5
20260503171503 64 150 1.0 4.0 0.00 0.00 0.00 62 1020.4
20260503171004 64 152 1.0 3.0 0.00 0.00 0.00 62 1020.4
20260503170504 64 140 1.0 6.0 0.00 0.00 0.00 62 1020.4
20260503151004 66 142 2.0 6.0 0.00 0.00 0.00 60 1020.4
20260503150504 66 120 1.0 4.0 0.00 0.00 0.00 60 1020.4
20260503150216 67 119 2.0 6.0 0.00 0.00 0.00 60 1020.5
20260503131004 70 99 3.0 8.0 0.00 0.00 0.00 39 1020.5
20260503130503 69 108 3.0 11.0 0.00 0.00 0.00 41 1020.5
20260503110503 75 191 1.0 4.0 0.00 0.00 0.00 35 1020.8
20260503090503 73 191 1.0 4.0 0.00 0.00 0.00 35 1022.0
20260503090215 73 189 1.0 4.0 0.00 0.00 0.00 35 1022.0
20260503081503 70 167 1.0 2.0 0.00 0.00 0.00 41 1022.2
20260503081004 70 151 1.0 4.0 0.00 0.00 0.00 41 1022.1
20260503080503 70 170 1.0 4.0 0.00 0.00 0.00 42 1022.1
20260503072503 68 174 1.0 4.0 0.00 0.00 0.00 40 1022.2
20260503072003 68 170 2.0 3.0 0.00 0.00 0.00 40 1022.1
20260503071504 67 161 2.0 3.0 0.00 0.00 0.00 40 1022.2
20260503071003 67 166 2.0 4.0 0.00 0.00 0.00 40 1022.2
20260503070503 67 169 2.0 4.0 0.00 0.00 0.00 40 1022.3
20260503055004 63 149 1.0 4.0 0.00 0.00 0.00 44 1022.4
20260503054503 63 155 1.0 2.0 0.00 0.00 0.00 43 1022.3
20260503054004 62 144 1.0 2.0 0.00 0.00 0.00 43 1022.5
20260503053504 61 161 1.0 2.0 0.00 0.00 0.00 46 1022.3
20260503053003 60 174 1.0 2.0 0.00 0.00 0.00 46 1022.3
20260503052504 60 178 1.0 2.0 0.00 0.00 0.00 47 1022.4
20260503052004 60 170 1.0 3.0 0.00 0.00 0.00 47 1022.5
20260503051713 60 168 1.0 3.0 0.00 0.00 0.00 46 1022.3
20260503051003 60 173 1.0 2.0 0.00 0.00 0.00 47 1022.2
20260503050504 59 170 1.0 3.0 0.00 0.00 0.00 47 1022.5
20260503050217 58 168 1.0 3.0 0.00 0.00 0.00 47 1022.2
20260503045503 58 163 1.0 4.0 0.00 0.00 0.00 47 1022.4
20260503045003 57 157 1.0 4.0 0.00 0.00 0.00 48 1022.4
20260503044716 57 149 1.0 4.0 0.00 0.00 0.00 49 1022.4
20260503044003 56 148 1.0 3.0 0.00 0.00 0.00 51 1022.5
20260503043503 54 168 1.0 2.0 0.00 0.00 0.00 54 1022.6
20260503043003 54 183 1.0 2.0 0.00 0.00 0.00 55 1022.5
20260503042713 54 188 0.0 2.0 0.00 0.00 0.00 56 1022.6
20260503042003 53 186 1.0 2.0 0.00 0.00 0.00 57 1022.2
20260503041504 52 189 1.0 3.0 0.00 0.00 0.00 58 1022.3
20260503041004 52 174 1.0 3.0 0.00 0.00 0.00 58 1022.3
20260503040504 53 173 1.0 2.0 0.00 0.00 0.00 58 1022.4
20260503040003 53 176 1.0 2.0 0.00 0.00 0.00 57 1022.2
20260503035503 54 176 1.0 2.0 0.00 0.00 0.00 55 1022.1